Weather Roundup
Issued by NWS Chicago, IL

Home | Current Version | Previous Version | Graphics & Text | Print | Product List | Glossary On
Versions: 1 2 3 4 5 6 7 8 9 10 11 12 13 14 15 16 17 18 19 20 21 22 23 24 25 26 27 28 29 30 31 32 33 34 35 36 37 38 39 40 41 42 43 44 45 46 47 48 49 50
000
NZUS59 KLOT 230810
HRRLOT

CHICAGO AREA WEATHER ROUNDUP
NATIONAL WEATHER SERVICE CHICAGO/ROMEOVILLE IL
200 AM CST SUN NOV 23 2014

NOTE: "FAIR" INDICATES FEW OR NO CLOUDS BELOW 12,000 FEET WITH NO
SIGNIFICANT WEATHER AND/OR OBSTRUCTIONS TO VISIBILITY.

* THESE STATIONS ARE NOT UNDER NWS QUALITY CONTROL. THEY ALSO MAY NOT
  REPORT WEATHER SUCH AS PRECIPITATION OR FOG.

ILZ005-006-012>014-019>023-230900-
NORTHEAST ILLINOIS

CITY           SKY/WX    TMP DP  RH WIND       PRES   REMARKS
OHARE          CLOUDY    50  46  86 S16       29.81F
MIDWAY         CLOUDY    51  47  86 S13       29.83F
AURORA         CLOUDY    51  46  83 S10       29.81S HAZE
LANSING*       CLOUDY    48  46  90 S10       29.86S
JOLIET*        CLOUDY    49  46  88 S8        29.83F
WAUKEGAN       CLOUDY    50  47  89 S17       29.78F
DUPAGE AIRPORT CLOUDY    50  46  86 S10       29.81S
WHEELING       CLOUDY    51  47  86 S13       29.82F
KANKAKEE*      CLOUDY    48  46  93 S6        29.86F
MORRIS*        CLOUDY    49  47  93 S7        29.81F
LEWIS AIRPORT* CLOUDY    49  46  87 S12       29.83S
NORTHERLY IS     N/A     51  45  79 SW14        N/A
$$

WIZ051-052-058>065-066-070>072-230900-
SOUTHEAST WISCONSIN

CITY           SKY/WX    TMP DP  RH WIND       PRES   REMARKS
MILWAUKEE      PTCLDY    49  45  86 S12       29.76F
KENOSHA*       CLOUDY    50  47  89 S10       29.77F
RACINE*        PTCLDY    50  46  86 S9        29.79F
BURLINGTON     CLOUDY    47  46  95 S12G18    29.76F
WAUKESHA       CLOUDY    46  45  93 S8        29.76S
WEST BEND      CLOUDY    50  45  81 S13       29.72F
$$

INZ001>003-010>013-019-020-230900-
NORTHWEST INDIANA

CITY           SKY/WX    TMP DP  RH WIND       PRES   REMARKS
GARY*          CLOUDY    51  46  83 S10G17    29.86S
MICHIGAN CITY* NOT AVBL
RENSSELAER*    NOT AVBL
VALPARAISO     CLOUDY    49  45  86 S14       29.89S
$$

LMZ740>746-230900-
SOUTHERN LAKE MICHIGAN

STATION/POSITION TIME  SKY/WX   TEMP WIND        PRES    VSBY
                                AIR  DIR/SP/G
                 (UTC)          (F)  (DEG/KT/KT) (MB)    (MI)
HARRISON CRIB    0800            50  190/ 28/ 32   N/A
BURNHAM HARBOR   0800            51  200/ 13/ 17   N/A
CALUMET HARBOR   0800            50  180/  8/ 15 1009.4S
BURNS HARBOR     NOT AVBL
MICHIGAN CITY    0800            50  170/ 14/ 20   N/A
$$

ABBREVIATIONS USED IN REMARKS
   TC - TEMPERATURE IN CELSIUS
  WCI - WIND CHILL INDEX
   HX - HEAT INDEX
  VSB - VISIBILITY
$$



USA.gov is the U.S. government's official web portal to all federal, state and local government web resources and services.